DW5310 Weather Reports


time (UTC)temp
C
wind
direction
speed
KPH
gust
KPH
rain 1hr
cm
rain 24hr
cm
rain mn
cm
humidity
%
barometer
mb
20260503222004 32 305 0.0 0.0 0.00 0.00 0.00 36 1008.5
20260503221504 32 305 0.0 0.0 0.00 0.00 0.00 37 1008.5
20260503221003 32 215 0.0 0.0 0.00 0.00 0.00 37 1008.5
20260503220505 32 43 0.0 0.0 0.00 0.00 0.00 38 1008.5
20260503220004 32 56 0.0 0.0 0.00 0.00 0.00 38 1008.5
20260503215004 31 35 0.0 0.0 0.00 0.00 0.00 40 1008.5
20260503214504 31 35 0.0 0.0 0.00 0.00 0.00 40 1008.5
20260503214003 31 35 0.0 0.0 0.00 0.00 0.00 40 1008.5
20260503213504 31 215 0.0 0.0 0.00 0.00 0.00 41 1008.5
20260503213004 31 59 0.0 0.0 0.00 0.00 0.00 40 1008.5
20260503212504 31 110 0.0 0.0 0.00 0.00 0.00 41 1008.5
20260503212004 30 125 0.0 0.0 0.00 0.00 0.00 42 1008.5
20260503211504 30 88 0.0 0.0 0.00 0.00 0.00 42 1008.5
20260503211003 30 305 0.0 0.0 0.00 0.00 0.00 42 1008.5
20260503210504 30 279 0.0 0.0 0.00 0.00 0.00 44 1008.5
20260503210004 29 220 0.0 0.0 0.00 0.00 0.00 44 1009.5
20260503205504 29 75 0.0 0.0 0.00 0.00 0.00 44 1009.5
20260503205004 28 155 0.0 0.0 0.00 0.00 0.00 45 1009.5
20260503204503 28 305 0.0 0.0 0.00 0.00 0.00 44 1009.5
20260503204004 28 35 0.0 0.0 0.00 0.00 0.00 45 1009.5
20260503203504 28 305 0.0 0.0 0.00 0.00 0.00 45 1009.5
20260503203005 28 35 0.0 0.0 0.00 0.00 0.00 46 1009.5
20260503202004 27 305 0.0 0.0 0.00 0.00 0.00 47 1009.5
20260503201504 27 320 0.0 0.0 0.00 0.00 0.00 47 1009.5
20260503201006 27 80 0.0 0.0 0.00 0.00 0.00 48 1009.5
20260503200504 27 41 0.0 0.0 0.00 0.00 0.00 49 1009.5
20260503200003 27 99 0.0 0.0 0.00 0.00 0.00 49 1009.5
20260503195504 27 87 0.0 0.0 0.00 0.00 0.00 50 1009.5
20260503195004 26 101 0.0 0.0 0.00 0.00 0.00 50 1009.5
20260503194504 26 35 0.0 0.0 0.00 0.00 0.00 51 1010.5
20260503194004 26 76 0.0 0.0 0.00 0.00 0.00 50 1010.5
20260503193504 26 75 0.0 0.0 0.00 0.00 0.00 51 1010.5
20260503192007 25 45 0.0 0.0 0.00 0.00 0.00 52 1010.5
20260503191509 25 47 0.0 0.0 0.00 0.00 0.00 52 1010.5
20260503191007 25 82 0.0 0.0 0.00 0.00 0.00 52 1010.5
20260503190507 24 223 0.0 0.0 0.00 0.00 0.00 55 1010.5
20260503190006 24 305 0.0 0.0 0.00 0.00 0.00 55 1010.5
20260503185506 24 229 0.0 0.0 0.00 0.00 0.00 55 1010.5
20260503185008 23 67 0.0 0.0 0.00 0.00 0.00 56 1010.5
20260503184506 23 305 0.0 0.0 0.00 0.00 0.00 57 1010.5
20260503184006 23 102 0.0 0.0 0.00 0.00 0.00 58 1010.5
20260503183506 23 30 0.0 0.0 0.00 0.00 0.00 58 1010.5
20260503183007 23 35 0.0 0.0 0.00 0.00 0.00 59 1010.5
20260503182506 23 116 0.0 0.0 0.00 0.00 0.00 59 1010.5
20260503182006 22 275 0.0 0.0 0.00 0.00 0.00 60 1010.5
20260503181507 22 305 0.0 0.0 0.00 0.00 0.00 61 1010.5
20260503181006 22 78 0.0 0.0 0.00 0.00 0.00 61 1010.5
20260503180506 22 83 0.0 0.0 0.00 0.00 0.00 63 1010.5
20260503180006 22 40 0.0 0.0 0.00 0.00 0.00 63 1010.5
20260503175507 22 47 0.0 0.0 0.00 0.00 0.00 64 1010.5
20260503175007 21 323 0.0 0.0 0.00 0.00 0.00 64 1010.5
20260503174506 21 318 0.0 0.0 0.00 0.00 0.00 65 1011.5
20260503174006 21 35 0.0 0.0 0.00 0.00 0.00 66 1011.5
20260503173007 21 215 0.0 3.2 0.00 0.00 0.00 67 1009.5
20260503172007 20 76 0.0 0.0 0.00 0.00 0.00 68 1009.5
20260503171507 20 35 0.0 0.0 0.00 0.00 0.00 69 1011.5
20260503171006 20 63 0.0 0.0 0.00 0.00 0.00 69 1011.5
20260503170507 20 171 0.0 0.0 0.00 0.00 0.00 70 1011.5
20260503151007 15 125 0.0 0.0 0.00 0.00 0.00 85 1010.5
20260503130506 12 305 0.0 0.0 0.00 0.00 0.00 90 1011.5
20260503110505 14 35 0.0 0.0 0.00 0.00 0.00 86 1010.5
20260503090506 15 305 0.0 0.0 0.00 0.00 0.00 83 1011.5
20260503081505 15 305 0.0 0.0 0.00 0.00 0.00 81 1011.5
20260503081006 15 305 0.0 0.0 0.00 0.00 0.00 81 1011.5
20260503072505 15 305 0.0 0.0 0.00 0.00 0.00 81 1011.5
20260503072006 15 305 0.0 0.0 0.00 0.00 0.00 81 1011.5
20260503071005 15 305 0.0 0.0 0.00 0.00 0.00 80 1011.5
20260503070506 15 305 0.0 0.0 0.00 0.00 0.00 80 1011.5
20260503055005 15 305 0.0 0.0 0.00 0.00 0.00 78 1011.5
20260503054505 15 305 0.0 0.0 0.00 0.00 0.00 79 1011.5
20260503054005 16 305 0.0 0.0 0.00 0.00 0.00 78 1011.5
20260503053505 16 305 0.0 0.0 0.00 0.00 0.00 78 1011.5
20260503053005 16 305 0.0 0.0 0.00 0.00 0.00 78 1011.5
20260503052505 16 305 0.0 0.0 0.00 0.00 0.00 78 1011.5
20260503052005 16 305 0.0 0.0 0.00 0.00 0.00 77 1011.5
20260503051505 16 305 0.0 0.0 0.00 0.00 0.00 77 1011.5
20260503051005 16 305 0.0 0.0 0.00 0.00 0.00 77 1011.5
20260503050504 16 305 0.0 0.0 0.00 0.00 0.00 77 1011.5
20260503050005 16 305 0.0 0.0 0.00 0.00 0.00 77 1012.5
20260503045505 16 305 0.0 0.0 0.00 0.00 0.00 77 1012.5
20260503044505 15 305 0.0 0.0 0.00 0.00 0.00 76 1012.5
20260503044006 15 305 0.0 0.0 0.00 0.00 0.00 76 1012.5
20260503043504 16 305 0.0 0.0 0.00 0.00 0.00 76 1012.5
20260503043004 16 344 0.0 0.0 0.00 0.00 0.00 75 1011.5
20260503042505 16 35 0.0 0.0 0.00 0.00 0.00 75 1011.5
20260503042005 16 305 0.0 0.0 0.00 0.00 0.00 74 1011.5
20260503041004 16 305 0.0 0.0 0.00 0.00 0.00 73 1011.5
20260503040005 16 305 0.0 0.0 0.00 0.00 0.00 73 1011.5
20260503035505 16 305 0.0 0.0 0.00 0.00 0.00 73 1011.5
20260503035006 16 305 0.0 0.0 0.00 0.00 0.00 73 1011.5
20260503034505 16 305 0.0 0.0 0.00 0.00 0.00 73 1011.5
20260503034006 16 305 0.0 0.0 0.00 0.00 0.00 73 1011.5
20260503033005 16 305 0.0 0.0 0.00 0.00 0.00 72 1011.5
20260503032504 16 305 0.0 0.0 0.00 0.00 0.00 72 1011.5
20260503032005 16 215 0.0 0.0 0.00 0.00 0.00 72 1011.5
20260503030504 17 215 0.0 0.0 0.00 0.00 0.00 71 1010.5
20260503030005 17 215 0.0 3.2 0.00 0.00 0.00 71 1010.5
20260503025504 17 225 0.0 3.2 0.00 0.00 0.00 71 1010.5
20260503025005 17 215 0.0 3.2 0.00 0.00 0.00 71 1010.5
20260503024504 17 219 0.0 9.7 0.00 0.00 0.00 71 1011.5
20260503024004 17 215 1.6 12.9 0.00 0.00 0.00 71 1011.5
20260503023505 17 220 4.8 12.9 0.00 0.00 0.00 71 1011.5
20260503022504 17 211 8.0 12.9 0.00 0.00 0.00 70 1011.5
20260503021504 18 238 6.4 19.3 0.00 0.00 0.00 68 1010.5
20260503020504 19 175 4.8 12.9 0.00 0.00 0.00 63 1010.5
20260503020005 20 211 4.8 12.9 0.00 0.00 0.00 62 1009.5
20260503015504 20 230 0.0 3.2 0.00 0.00 0.00 61 1009.5
20260503015005 20 169 0.0 3.2 0.00 0.00 0.00 62 1009.5
20260503014505 20 260 0.0 0.0 0.00 0.00 0.00 62 1010.5
20260503014004 20 162 0.0 0.0 0.00 0.00 0.00 62 1010.5
20260503013004 20 80 0.0 0.0 0.00 0.00 0.00 61 1010.5
20260503012504 20 80 0.0 0.0 0.00 0.00 0.00 61 1010.5
20260503012004 20 80 0.0 0.0 0.00 0.00 0.00 61 1010.5
20260503011505 20 125 0.0 0.0 0.00 0.00 0.00 62 1010.5
20260503010505 20 35 0.0 0.0 0.00 0.00 0.00 61 1010.5
20260503005504 20 35 0.0 0.0 0.00 0.00 0.00 61 1010.5
20260503005004 20 35 0.0 0.0 0.00 0.00 0.00 60 1010.5
20260503004505 20 35 0.0 0.0 0.00 0.00 0.00 60 1010.5
20260503004004 20 51 0.0 0.0 0.00 0.00 0.00 60 1010.5
20260503003504 20 78 0.0 0.0 0.00 0.00 0.00 60 1010.5
20260503002504 20 260 0.0 0.0 0.00 0.00 0.00 60 1010.5
20260503002004 20 243 0.0 0.0 0.00 0.00 0.00 60 1010.5
20260503001504 20 35 0.0 0.0 0.00 0.00 0.00 60 1010.5
20260503000504 20 35 0.0 0.0 0.00 0.00 0.00 60 1010.5
20260503000004 20 37 0.0 0.0 0.00 0.00 0.00 60 1010.5
20260502235504 20 125 0.0 3.2 0.00 0.00 0.00 61 1010.5
20260502235005 21 41 0.0 3.2 0.00 0.00 0.00 60 1010.5
20260502234504 21 18 0.0 0.0 0.00 0.00 0.00 61 1009.5
20260502233504 21 293 0.0 0.0 0.00 0.00 0.00 60 1009.5
20260502232504 21 104 0.0 0.0 0.00 0.00 0.00 61 1010.5
20260502232005 21 49 0.0 8.0 0.00 0.00 0.00 61 1010.5
20260502231504 21 91 0.0 8.0 0.00 0.00 0.00 61 1010.5
20260502231004 21 71 0.0 0.0 0.00 0.00 0.00 62 1010.5
20260502230004 20 87 0.0 3.2 0.00 0.00 0.00 63 1010.5
20260502225004 20 310 0.0 4.8 0.00 0.00 0.00 63 1010.5
20260502224504 20 215 0.0 3.2 0.00 0.00 0.00 64 1011.5
20260502224004 19 142 0.0 3.2 0.00 0.00 0.00 64 1011.5
20260502223504 20 35 0.0 0.0 0.00 0.00 0.00 63 1011.5